APRIZESAT 6

Satellite information

Favourite Embed

Satellite Type and Status

PAYLOADIN ORBIT

Key statistics

Satellite APRIZESAT 6 at a glance.

Uptime

5011

Days in orbit

Revolutions

≈ 14.8

Per day

Orbit

SSO

Sun Synchronous Orbit

Inclination

98.3

Latest

Satellite identification and parameters

Extended collection of information and parameters for APRIZESAT 6.

Object identification

Identified? True

Debris? False

Object name: APRIZESAT 6

International designator: 2011-044F

Object number (NORAD): 37793

Object ID (CCSDS): 37793

Country: UNITED STATES OF AMERICA (US)

Current information (Y/N): Y

RCS size: MEDIUM

Orbital parameters

Period: 97.56 minutes

Inclination: 98.2642 deg

SMA: 7020.061 km

Apoapsis: 671.981 km

Periapsis: 611.871 km

RAAN: 22.5562 deg

Eccentricy: 0.0042813

Argument of periapsis: 310.1231 deg

Mean anomaly: 107.4278 deg

Mean motion: 14.76017368 rev/day

Mean motion (dot): 0.00001308 rev/day2

B* drag term: 0.00019523 1/REarth

Two-line elements (TLE)

Creation date: May 6, 2025, 3:54 a.m.

Reference frame: TEME

Reference center: EARTH

Epoch: May 5, 2025, 3:29 p.m. UTC

TLE line 0: 0 APRIZESAT 6

TLE line 1: 1 37793U 11044F 25125.64560416 .00001308 00000-0 19523-3 0 9991

TLE line 2: 2 37793 98.2642 22.5562 0042813 310.1231 107.4278 14.76017368737013

Live tracking on map

Real-time ground track for satellite APRIZESAT 6.

In-orbit conjunctions

There are no conjunctions computed for APRIZESAT 6, at the moment. Check back to stay up to date, as we update our databases every day.

Go to all conjunctions

Associated space launch

APRIZESAT 6 was lifted into orbit during the mission ‘Dnepr 1 | Sich-2’, on board a Dnepr space rocket.

The launch took place on Aug. 17, 2011, 7:12 a.m. from 370/13.

For more information about the launch, click the button.

Launch to space Dnepr 1 | Sich-2
Dnepr 1 | Sich-2

Agency: N/A

Status: Launch Successful

Launch date: Aug. 17, 2011, 7:12 a.m. UTC

Rocket: Dnepr

Launch pad: 370/13

Location: Dombarovskiy, Russian Federation

...

Latest news about this satellite

There are no fresh news available about this satellite. Check back as we update our databases every day.


Newsletter sign-up

Weekly statistics, charts and insights to help you stay on top of the space industry.